• In Uzbekistan
  • List of Countries
  • For 7 days
  • Water Temperature
  • Satellite Maps
  • Weather Map
  • Weather Widgets
  • user-avatar
    Login

    Hourly Weather Davras

    Today, 19 October, Thursday

    Time Temperature Precipitation Wind Pressure Humidity
    00:00 +13°C° 0 mm 1 mps 675 mmHg 46%
    01:00 +12°C° 0 mm 1 mps 675 mmHg 47%
    02:00 +11°C° 0 mm 1 mps 674 mmHg 50%
    03:00 +11°C° 0 mm 1 mps 674 mmHg 52%
    04:00 +11°C° 0 mm 1 mps 674 mmHg 53%
    05:00 +11°C° 0 mm 1 mps 674 mmHg 54%
    06:00 +12°C° 0 mm 1 mps 675 mmHg 48%
    07:00 +14°C° 0 mm 1 mps 675 mmHg 43%
    08:00 +16°C° 0 mm 1 mps 676 mmHg 38%
    09:00 +19°C° 0 mm 1 mps 676 mmHg 34%
    10:00 +20°C° 0 mm 1 mps 676 mmHg 30%
    11:00 +22°C° 0 mm 1 mps 677 mmHg 26%
    12:00 +22°C° 0 mm 1 mps 677 mmHg 25%
    13:00 +23°C° 0 mm 1 mps 676 mmHg 24%
    14:00 +24°C° 0 mm 1 mps 676 mmHg 22%
    15:00 +22°C° 0 mm 1 mps 676 mmHg 26%
    16:00 +21°C° 0 mm 1 mps 675 mmHg 30%
    17:00 +19°C° 0 mm 1 mps 675 mmHg 34%
    18:00 +18°C° 0 mm 1 mps 675 mmHg 36%
    19:00 +15°C° 0 mm 0 mps 675 mmHg 37%
    20:00 +14°C° 0 mm 0 mps 675 mmHg 39%
    21:00 +13°C° 0 mm 0 mps 675 mmHg 40%
    22:00 +13°C° 0 mm 0 mps 674 mmHg 41%
    23:00 +12°C° 0 mm 0 mps 674 mmHg 42%

    Tomorrow, 20 October, Friday

    Time Temperature Precipitation Wind Pressure Humidity
    00:00 +12°C° 0 mm 0 mps 674 mmHg 43%
    01:00 +12°C° 0 mm 0 mps 674 mmHg 44%
    02:00 +11°C° 0 mm 0 mps 674 mmHg 45%
    03:00 +12°C° 0 mm 1 mps 674 mmHg 45%
    04:00 +12°C° 0 mm 1 mps 674 mmHg 46%
    05:00 +11°C° 0 mm 1 mps 674 mmHg 47%
    06:00 +13°C° 0 mm 1 mps 674 mmHg 43%
    07:00 +15°C° 0 mm 1 mps 675 mmHg 38%
    08:00 +18°C° 0 mm 1 mps 676 mmHg 34%
    09:00 +20°C° 0 mm 1 mps 676 mmHg 31%
    10:00 +21°C° 0 mm 1 mps 676 mmHg 28%
    11:00 +20°C° 0 mm 0 mps 677 mmHg 26%
    12:00 +21°C° 0 mm 0 mps 676 mmHg 25%
    13:00 +23°C° 0 mm 1 mps 676 mmHg 24%
    14:00 +24°C° 0 mm 1 mps 676 mmHg 23%
    15:00 +22°C° 0 mm 1 mps 675 mmHg 26%
    16:00 +21°C° 0 mm 1 mps 675 mmHg 30%
    17:00 +20°C° 0 mm 1 mps 675 mmHg 33%
    18:00 +19°C° 0 mm 1 mps 675 mmHg 35%
    19:00 +16°C° 0 mm 1 mps 675 mmHg 37%
    20:00 +15°C° 0 mm 1 mps 674 mmHg 39%
    21:00 +15°C° 0 mm 1 mps 674 mmHg 40%
    22:00 +14°C° 0 mm 1 mps 674 mmHg 41%
    23:00 +14°C° 0 mm 1 mps 674 mmHg 42%

    Day after tomorrow, 21 October, Saturday

    Time Temperature Precipitation Wind Pressure Humidity
    00:00 +13°C° 0 mm 1 mps 674 mmHg 42%
    01:00 +13°C° 0 mm 1 mps 674 mmHg 43%
    02:00 +13°C° 0 mm 1 mps 674 mmHg 44%
    03:00 +12°C° 0 mm 1 mps 673 mmHg 45%
    04:00 +12°C° 0 mm 1 mps 673 mmHg 46%
    05:00 +12°C° 0 mm 1 mps 673 mmHg 47%
    06:00 +13°C° 0 mm 1 mps 673 mmHg 43%
    07:00 +15°C° 0 mm 1 mps 674 mmHg 38%
    08:00 +18°C° 0 mm 1 mps 675 mmHg 34%
    09:00 +19°C° 0 mm 1 mps 675 mmHg 31%
    10:00 +21°C° 0 mm 1 mps 675 mmHg 28%
    11:00 +20°C° 0 mm 0 mps 675 mmHg 26%
    12:00 +22°C° 0 mm 1 mps 675 mmHg 25%
    13:00 +23°C° 0 mm 1 mps 675 mmHg 24%
    14:00 +23°C° 0 mm 1 mps 674 mmHg 23%
    15:00 +22°C° 0 mm 1 mps 674 mmHg 26%
    16:00 +21°C° 0 mm 1 mps 673 mmHg 29%
    17:00 +19°C° 0 mm 1 mps 673 mmHg 32%
    18:00 +18°C° 0 mm 1 mps 673 mmHg 34%
    19:00 +16°C° 0 mm 1 mps 673 mmHg 36%
    20:00 +15°C° 0 mm 1 mps 673 mmHg 38%
    21:00 +14°C° 0 mm 1 mps 673 mmHg 40%
    22:00 +14°C° 0 mm 1 mps 673 mmHg 41%
    23:00 +13°C° 0 mm 1 mps 672 mmHg 42%

    22 October, Sunday

    Time Temperature Precipitation Wind Pressure Humidity
    00:00 +13°C° 0 mm 1 mps 672 mmHg 43%
    01:00 +12°C° 0 mm 1 mps 672 mmHg 44%
    02:00 +12°C° 0 mm 1 mps 672 mmHg 44%
    03:00 +12°C° 0 mm 1 mps 672 mmHg 46%
    04:00 +11°C° 0 mm 1 mps 671 mmHg 47%
    05:00 +11°C° 0 mm 1 mps 671 mmHg 48%
    06:00 +13°C° 0 mm 1 mps 672 mmHg 44%
    07:00 +14°C° 0 mm 1 mps 673 mmHg 41%
    08:00 +16°C° 0 mm 1 mps 673 mmHg 37%
    09:00 +18°C° 0 mm 1 mps 673 mmHg 33%
    10:00 +20°C° 0 mm 1 mps 673 mmHg 30%
    11:00 +21°C° 0 mm 1 mps 674 mmHg 26%
    12:00 +22°C° 0 mm 1 mps 673 mmHg 25%
    13:00 +22°C° 0 mm 1 mps 673 mmHg 24%
    14:00 +23°C° 0 mm 1 mps 672 mmHg 23%
    15:00 +21°C° 0 mm 1 mps 672 mmHg 26%
    16:00 +20°C° 0 mm 1 mps 672 mmHg 29%
    17:00 +19°C° 0 mm 1 mps 671 mmHg 32%
    18:00 +18°C° 0 mm 1 mps 671 mmHg 34%
    19:00 +15°C° 0 mm 1 mps 671 mmHg 37%
    20:00 +14°C° 0 mm 1 mps 671 mmHg 40%
    21:00 +14°C° 0 mm 1 mps 671 mmHg 42%
    22:00 +13°C° 0 mm 1 mps 671 mmHg 44%
    23:00 +13°C° 0 mm 1 mps 671 mmHg 46%

    23 October, Monday

    Time Temperature Precipitation Wind Pressure Humidity
    00:00 +12°C° 0 mm 1 mps 671 mmHg 47%
    01:00 +12°C° 0 mm 1 mps 670 mmHg 49%
    02:00 +11°C° 0 mm 1 mps 670 mmHg 51%
    03:00 +11°C° 0 mm 1 mps 670 mmHg 52%
    04:00 +11°C° 0 mm 1 mps 670 mmHg 53%
    05:00 +10°C° 0 mm 1 mps 670 mmHg 55%
    06:00 +12°C° 0 mm 1 mps 670 mmHg 49%
    07:00 +14°C° 0 mm 1 mps 671 mmHg 44%
    08:00 +15°C° 0 mm 1 mps 671 mmHg 38%
    09:00 +18°C° 0 mm 1 mps 671 mmHg 35%
    10:00 +18°C° 0 mm 2 mps 671 mmHg 31%
    11:00 +20°C° 0 mm 2 mps 671 mmHg 27%
    12:00 +20°C° 0 mm 2 mps 671 mmHg 26%
    13:00 +21°C° 0 mm 3 mps 671 mmHg 26%
    14:00 +21°C° 0 mm 3 mps 670 mmHg 25%
    15:00 +20°C° 0 mm 3 mps 670 mmHg 30%
    16:00 +18°C° 0 mm 2 mps 670 mmHg 34%
    17:00 +17°C° 0 mm 2 mps 670 mmHg 39%
    18:00 +16°C° 0 mm 2 mps 670 mmHg 45%
    19:00 +15°C° 0 mm 2 mps 670 mmHg 52%
    20:00 +13°C° 0 mm 2 mps 669 mmHg 58%
    21:00 +13°C° 0 mm 2 mps 669 mmHg 63%
    22:00 +13°C° 0 mm 2 mps 669 mmHg 68%
    23:00 +12°C° 0 mm 2 mps 669 mmHg 73%

    24 October, Tuesday

    Time Temperature Precipitation Wind Pressure Humidity
    00:00 +12°C° 0 mm 2 mps 669 mmHg 76%
    01:00 +10°C° 0 mm 2 mps 669 mmHg 78%
    02:00 +10°C° 0 mm 2 mps 669 mmHg 81%
    03:00 +10°C° 0 mm 2 mps 669 mmHg 82%
    04:00 +10°C° 0 mm 2 mps 669 mmHg 84%
    05:00 +9°C° 0 mm 2 mps 669 mmHg 86%
    06:00 +10°C° 0 mm 2 mps 670 mmHg 83%
    07:00 +12°C° 0 mm 2 mps 670 mmHg 80%
    08:00 +13°C° 0 mm 2 mps 671 mmHg 77%
    09:00 +13°C° 0 mm 3 mps 671 mmHg 69%
    10:00 +16°C° 0 mm 3 mps 671 mmHg 61%
    11:00 +17°C° 0 mm 4 mps 671 mmHg 54%
    12:00 +17°C° 0 mm 4 mps 671 mmHg 53%
    13:00 +18°C° 0 mm 4 mps 671 mmHg 52%
    14:00 +18°C° 0 mm 4 mps 670 mmHg 52%
    15:00 +17°C° 0 mm 4 mps 670 mmHg 57%
    16:00 +16°C° 0 mm 3 mps 670 mmHg 63%
    17:00 +14°C° 0 mm 3 mps 670 mmHg 68%
    18:00 +14°C° 0 mm 3 mps 670 mmHg 72%
    19:00 +13°C° 0 mm 3 mps 670 mmHg 77%
    20:00 +13°C° 0 mm 3 mps 671 mmHg 81%
    21:00 +12°C° 0 mm 3 mps 671 mmHg 83%
    22:00 +12°C° 0 mm 3 mps 671 mmHg 84%
    23:00 +12°C° 0 mm 3 mps 671 mmHg 86%
    Show more